Ozona, TX

5:55 PM CDT on September 25, 2016 (GMT -0500)
Ozona Municipal

Weather History for KOZA - March, 2012

Change the Weather History Date:

Saturday, March 3, 2012

  Actual Average Record
Temperature  
Mean Temperature 48 °F -  
Max Temperature 60 °F 71 °F 78 °F (2013)
Min Temperature 37 °F 41 °F 19 °F (2014)
Degree Days  
Heating Degree Days 16    
Moisture  
Dew Point 25 °F    
Average Humidity 41    
Maximum Humidity 65    
Minimum Humidity 18    
Precipitation  
Precipitation 0.00 in - - ()
Sea Level Pressure  
Sea Level Pressure 30.17 in    
Wind  
Wind Speed 12 mph (NNW)    
Max Wind Speed 18 mph    
Max Gust Speed 28 mph    
Visibility 10 miles    
Events      
Averages and records for this station are not official NWS values.
T = Trace of Precipitation, MM = Missing Value Source: NWS Daily Summary

Daily Weather History Graph

Daily Weather History Graph

Search for Another Location

Airport or City:

Trip Planner

Search our weather history database for the weather conditions in past years. The results will help you decide how hot, cold, wet, or windy it might be!

Date:

Astronomy

Mar. 03, 2012 Rise Set
Actual Time 7:08 AM CST 6:45 PM CST
Civil Twilight 6:44 AM CST 7:09 PM CST
Nautical Twilight 6:16 AM CST 7:37 PM CST
Astronomical Twilight 5:48 AM CST 8:05 PM CST
Moon 2:13 PM CST (3/3) 3:30 AM CST (3/3)
Length of Visible Light 12h 25m
Length of Day
11h 36m
Waxing Gibbous, 75% of the Moon is Illuminated
Mar 3
Waxing Gibbous
Mar 8
Full
Mar 14
Last Quarter
Mar 22
New
Mar 30
First Quarter

Hourly Weather History & Observations

Time (CST) Temp. Windchill Dew Point Humidity Pressure Visibility Wind Dir Wind Speed Gust Speed Precip Events Conditions
12:15 AM 52.0 °F - 33.3 °F 49% 29.99 in 10.0 mi NNE 18.4 mph 27.6 mph N/A   Clear
12:35 AM 51.3 °F - 33.4 °F 51% 30.00 in 10.0 mi NNE 16.1 mph 26.5 mph N/A   Clear
12:55 AM 50.4 °F - 33.6 °F 53% 30.00 in 10.0 mi NNE 13.8 mph 19.6 mph N/A   Clear
1:15 AM 49.8 °F - 33.3 °F 53% 30.01 in 10.0 mi NE 17.3 mph 26.5 mph N/A   Clear
1:55 AM 48.7 °F - 32.5 °F 54% 30.02 in 10.0 mi NNE 12.7 mph - N/A   Clear
2:15 AM 48.2 °F - 32.4 °F 54% 30.02 in 10.0 mi NNE 11.5 mph 19.6 mph N/A   Clear
2:55 AM 46.6 °F - 32.2 °F 57% 30.05 in 10.0 mi North 9.2 mph - N/A   Clear
3:15 AM 46.0 °F 41.0 °F 32.2 °F 58% 30.05 in 10.0 mi North 10.4 mph - N/A   Clear
3:55 AM 44.6 °F 40.2 °F 32.0 °F 61% 30.07 in 10.0 mi North 8.1 mph - N/A   Clear
4:15 AM 43.9 °F 41.3 °F 31.6 °F 62% 30.08 in 10.0 mi North 4.6 mph - N/A   Clear
4:55 AM 42.1 °F 37.7 °F 30.6 °F 64% 30.11 in 10.0 mi NNW 6.9 mph - N/A   Clear
5:15 AM 41.2 °F 36.0 °F 30.0 °F 65% 30.12 in 10.0 mi NNW 8.1 mph - N/A   Clear
5:35 AM 40.6 °F 37.5 °F 29.1 °F 64% 30.13 in 10.0 mi North 4.6 mph - N/A   Clear
6:15 AM 39.4 °F 35.2 °F 27.7 °F 63% 30.15 in 10.0 mi NNW 5.8 mph - N/A   Clear
6:35 AM 38.7 °F 35.2 °F 26.8 °F 62% 30.16 in 10.0 mi North 4.6 mph - N/A   Clear
6:55 AM 37.8 °F 32.5 °F 26.6 °F 64% 30.17 in 10.0 mi North 6.9 mph - N/A   Clear
7:15 AM 37.8 °F 32.5 °F 26.1 °F 63% 30.17 in 10.0 mi North 6.9 mph - N/A   Clear
7:35 AM 37.2 °F 31.2 °F 26.2 °F 65% 30.19 in 10.0 mi North 8.1 mph - N/A   Clear
7:55 AM 38.7 °F 32.4 °F 26.4 °F 61% 30.20 in 10.0 mi North 9.2 mph - N/A   Clear
8:15 AM 40.5 °F 33.6 °F 27.0 °F 59% 30.21 in 10.0 mi North 11.5 mph - N/A   Clear
8:35 AM 41.9 °F 35.9 °F 28.0 °F 58% 30.22 in 10.0 mi NNW 10.4 mph 19.6 mph N/A   Clear
8:55 AM 43.7 °F 37.7 °F 29.1 °F 57% 30.23 in 10.0 mi North 11.5 mph 18.4 mph N/A   Clear
9:15 AM 45.3 °F 39.3 °F 29.5 °F 54% 30.23 in 10.0 mi North 12.7 mph 16.1 mph N/A   Clear
9:35 AM 47.1 °F - 28.8 °F 49% 30.24 in 10.0 mi North 11.5 mph 18.4 mph N/A   Clear
9:55 AM 49.3 °F - 26.6 °F 41% 30.25 in 10.0 mi NNW 15.0 mph 20.7 mph N/A   Clear
10:15 AM 50.0 °F - 26.1 °F 39% 30.25 in 10.0 mi NNW 11.5 mph - N/A   Clear
10:35 AM 50.5 °F - 25.9 °F 38% 30.26 in 10.0 mi NNW 13.8 mph 20.7 mph N/A   Clear
10:55 AM 51.6 °F - 26.4 °F 38% 30.26 in 10.0 mi NW 11.5 mph 17.3 mph N/A   Clear
11:15 AM 52.2 °F - 27.3 °F 38% 30.25 in 10.0 mi NNW 12.7 mph 18.4 mph N/A   Clear
11:35 AM 52.9 °F - 27.7 °F 38% 30.25 in 10.0 mi WNW 8.1 mph - N/A   Clear
11:55 AM 53.8 °F - 28.6 °F 38% 30.24 in 10.0 mi NW 15.0 mph 18.4 mph N/A   Clear
12:15 PM 54.5 °F - 28.6 °F 37% 30.23 in 10.0 mi WNW 12.7 mph 18.4 mph N/A   Clear
12:35 PM 55.0 °F - 27.0 °F 34% 30.22 in 10.0 mi NW 11.5 mph 19.6 mph N/A   Clear
12:55 PM 55.6 °F - 27.5 °F 34% 30.20 in 10.0 mi NW 12.7 mph 23.0 mph N/A   Scattered Clouds
1:15 PM 56.7 °F - 26.4 °F 31% 30.20 in 10.0 mi NW 12.7 mph 20.7 mph N/A   Scattered Clouds
1:35 PM 57.2 °F - 25.5 °F 30% 30.18 in 10.0 mi NW 18.4 mph 24.2 mph N/A   Clear
2:15 PM 57.9 °F - 23.7 °F 27% 30.17 in 10.0 mi NW 12.7 mph 25.3 mph N/A   Clear
2:35 PM 58.3 °F - 24.1 °F 27% 30.16 in 10.0 mi NW 17.3 mph 21.9 mph N/A   Clear
3:15 PM 59.5 °F - 22.1 °F 24% 30.16 in 10.0 mi WNW 16.1 mph 21.9 mph N/A   Clear
3:35 PM 59.9 °F - 20.3 °F 22% 30.15 in 10.0 mi NW 15.0 mph 26.5 mph N/A   Clear
3:55 PM 60.3 °F - 19.2 °F 20% 30.15 in 10.0 mi NNW 17.3 mph 27.6 mph N/A   Clear
4:15 PM 60.3 °F - 19.0 °F 20% 30.15 in 10.0 mi WNW 15.0 mph 25.3 mph N/A   Clear
4:35 PM 59.9 °F - 18.7 °F 20% 30.16 in 10.0 mi NW 15.0 mph 23.0 mph N/A   Clear
5:15 PM 59.7 °F - 16.0 °F 18% 30.16 in 10.0 mi NW 17.3 mph 25.3 mph N/A   Clear
5:35 PM 59.4 °F - 14.9 °F 18% 30.17 in 10.0 mi NW 18.4 mph 26.5 mph N/A   Clear
5:55 PM 59.0 °F - 14.7 °F 18% 30.17 in 10.0 mi NNW 13.8 mph 19.6 mph N/A   Clear
6:15 PM 58.6 °F - 14.7 °F 18% 30.17 in 10.0 mi WNW 11.5 mph 17.3 mph N/A   Clear
6:35 PM 57.9 °F - 14.2 °F 18% 30.18 in 10.0 mi NW 10.4 mph - N/A   Clear
6:55 PM 56.3 °F - 13.8 °F 19% 30.18 in 10.0 mi WNW 6.9 mph - N/A   Clear
7:15 PM 54.3 °F - 14.5 °F 21% 30.19 in 10.0 mi WNW 5.8 mph - N/A   Clear
7:35 PM 52.2 °F - 15.3 °F 23% 30.20 in 10.0 mi NW 5.8 mph - N/A   Clear
7:55 PM 48.9 °F - 16.5 °F 28% 30.21 in 10.0 mi WNW 8.1 mph - N/A   Clear
8:15 PM 46.9 °F - 16.2 °F 29% 30.22 in 10.0 mi WNW 5.8 mph - N/A   Clear
8:35 PM 45.9 °F 42.3 °F 15.3 °F 29% 30.22 in 10.0 mi WNW 6.9 mph - N/A   Clear
8:55 PM 45.5 °F 41.3 °F 14.5 °F 29% 30.23 in 10.0 mi WNW 8.1 mph - N/A   Clear
9:15 PM 44.2 °F - 15.6 °F 32% 30.23 in 10.0 mi Calm Calm - N/A   Clear
9:35 PM 41.7 °F - 16.7 °F 36% 30.23 in 10.0 mi Calm Calm - N/A   Clear
9:55 PM 41.0 °F - 16.7 °F 37% 30.24 in 10.0 mi Calm Calm - N/A   Clear
10:15 PM 40.6 °F - 16.7 °F 38% 30.25 in 10.0 mi Calm Calm - N/A   Clear
10:35 PM 38.7 °F - 18.9 °F 45% 30.25 in 10.0 mi Calm Calm - N/A   Clear
10:55 PM 37.2 °F 34.7 °F 18.3 °F 46% 30.25 in 10.0 mi NE 3.5 mph - N/A   Clear
11:35 PM 35.6 °F - 18.7 °F 50% 30.25 in 10.0 mi Calm Calm - N/A   Clear
11:55 PM 34.3 °F - 19.4 °F 54% 30.24 in 10.0 mi Calm Calm - N/A   Clear